www.pogodaiklimat.ru

Погода и климат >> Архив погоды >> Россия >> Краснодарский край >> Туапсе


АРХИВ ПОГОДЫ в Туапсе

Время (UTC), дата Ветер
(напр.,м/с)
 
Видим.   Явления Облачность Т
(С)
Тd
(С)
f
(%)
Тe
(С)
Тes
(С)
Комфортность P
(гПа)
Po
(гПа)
Тmin
(С)
Tmax
(С)
R
(мм)
R24
(мм)
S
(см)
00 16.07 СВ 1 10 км 4/0
[Ci fib]
+22.6 +14.8 61 +26 +26 жарко 1011.1 1004.0
03 16.07 СВ 2 20 км 3/0
[Ci fib]
+22.4 +14.8 62 +26 +27 жарко 1011.8 1004.7 +22.0
06 16.07 СВ 1 20 км 8/0
[Cc]
+27.8 +15.1 46 +30 +40 жарко 1012.2 1005.2
09 16.07 ЮЗ 1 20 км 5/3 1000 м
[Cu med, cong Ci sp]
+29.9 +18.7 51 +35 +49 очень
душно
1011.6 1004.7
12 16.07 З 2 20 км 3/3 1000 м
[Cu med, cong]
+32.0 +18.8 46 +37 +46 очень
душно
1010.9 1004.0
15 16.07 С 2 20 км 3/3 1000 м
[Cu med, cong Ci sp]
+31.6 +17.6 43 +36 +37 очень
душно
1009.8 1002.9 +32.9
18 16.07 СВ 3 10 км 10/5 1000 м
[Sc diur, vesp Ci sp]
+28.7 +16.7 48 +32 +32 душно 1009.6 1002.7
21 16.07 В 2
{11}
10 км 9/6 1000 м
[Sc diur, vesp Ci sp]
+26.8 +20.2 67 +33 +33 очень
душно
1010.4 1003.4
00 17.07 В 2 10 км 3/0
[Ci sp]
+25.0 +19.3 71 +30 +30 душно 1011.0 1004.0
03 17.07 СВ 1 20 км 10/0
[Ci]
+24.0 +17.6 67 +28 +29 душно 1010.8 1003.8 +23.4
06 17.07 ЮЗ 1 20 км 10/0
[Ac trans Ci]
+28.0 +18.3 56 +33 +38 очень
душно
1010.7 1003.8
09 17.07 ЮЗ 1 20 км 10/0
[Ac trans Ci sp]
+27.9 +19.8 61 +34 +44 очень
душно
1010.9 1003.9
12 17.07 СЗ 1 20 км 10/0
[Ac trans Ci sp]
+30.5 +18.1 48 +35 +44 очень
душно
1010.0 1003.1
15 17.07 З 1 20 км ясно +29.7 +20.0 56 +36 +39 очень
душно
1008.8 1001.9 +32.1
18 17.07 В 1 10 км ясно +27.5 +20.4 65 +34 +34 очень
душно
1009.2 1002.2
21 17.07 ЮВ 3 10 км ясно +25.4 +21.5 79 +32 +32 очень
душно
1010.8 1003.7
00 18.07 штиль 0 10 км ясно +24.9 +20.3 76 +31 +31 очень
душно
1010.9 1003.9
03 18.07 СВ 2 20 км 1/1 1000 м
[Sc]
+23.7 +19.3 76 +29 +29 душно 1011.8 1004.8 +23.3
06 18.07 ЮЗ 1 20 км ясно +29.7 +18.3 50 +34 +46 очень
душно
1011.6 1004.7
09 18.07 ЮЗ 2 20 км 1/1 1000 м
[Cu med, cong]
+30.1 +20.3 56 +37 +54 опасность
солнечного
удара
1011.1 1004.2
12 18.07 ЮЗ 2 20 км ясно +30.2 +21.0 58 +38 +51 опасность
солнечного
удара
1009.9 1003.0
15 18.07 ЮЗ 2 20 км ясно +29.1 +19.2 55 +35 +37 очень
душно
1008.2 1001.3 +31.1
18 18.07 ЮЗ 1 10 км 3/0
[Ci fib]
+25.5 +20.8 75 +32 +32 очень
душно
1008.0 1001.0
21 18.07 ЮЗ 1 10 км ясно +24.9 +21.4 81 +32 +32 очень
душно
1007.7 1000.7
00 19.07 СВ 1 н/о н/о +25.2 +18.9 68 +30 +30 душно 1008.3 1001.3
03 19.07 С 2 20 км 8/0
[Ac trans Ci fib]
+26.7 +16.1 52 +30 +30 душно 1007.4 1000.4 +24.5
06 19.07 Ю 1
{10}
20 км 8/3 1000 м
[Sc Ac trans Ci fib]
+28.9 +21.0 62 +36 +41 очень
душно
1008.1 1001.1
09 19.07 ЮЗ 2 20 км 9/4 1000 м
[Sc Ac trans Ci fib]
+30.3 +21.9 61 +39 +45 очень
душно
1008.7 1001.8
12 19.07 ЮЗ 2 20 км 9/6 1000 м
[Cu Sc Ci fib]
+28.7 +22.2 68 +37 +42 очень
душно
1008.5 1001.6
15 19.07 ЮЗ 1 20 км 9/8 1000 м
[Cb cap Ci fib]
+27.1 +21.8 73 +35 +35 очень
душно
1008.0 1001.0 +31.3
18 19.07 В 1 10 км 9/6 1000 м
[Cb cap Ci fib]
+26.2 +21.7 76 +34 +34 очень
душно
1008.4 1001.4
21 19.07 С 1 10 км в посл. час ливневой дождь 10/8 1000 м
[Cb cap Ci]
+25.1 +22.1 83 +32 +32 очень
душно
1008.6 1001.6
00 20.07 СВ 5
{11}
10 км в посл. час гроза {ливн. осадки} 10/8 1000 м
[Cb cap Ci]
+23.9 +14.2 55 +26 +26 жарко 1008.5 1001.4
03 20.07 СВ 4
{10}
10 км гроза, ливневой дождь 10/9 1000 м
[Cb cap Ci]
+22.6 +15.2 63 +26 +26 жарко 1008.2 1001.1 +22.6 4
06 20.07 СВ 3
{10}
10 км гроза, ливневой дождь 10/8 600 м
[Cb cap Ci sp]
+23.8 +15.9 61 +27 +28 жарко 1007.3 1000.3 +21.3
09 20.07 СВ 3
{11}
2000 м гроза, ливневой дождь 10/10 600 м
[Cb cap]
+19.2 +17.8 92 +21 +21 комфорт 1009.9 1002.7
12 20.07 В 3
{12}
20 км {гроза, ливн. осадки} 10/8 600 м
[Cb cap Ci sp]
+25.8 +19.8 69 +31 +33 очень
душно
1008.2 1001.2
15 20.07 Ю 1 10 км слабый ливневой дождь 10/8 1000 м
[Cb cap Ci sp]
+22.5 +19.4 83 +29 +29 очень
душно
1009.1 1002.1 +26.0 69
18 20.07 СВ 2 4000 м слабый ливневой дождь 10/10 600 м
[Cb cap]
+21.2 +18.8 86 +26 +26 душно 1010.5 1003.4
21 20.07 СВ 5-10
{10}
10 км {ливн. осадки} 10/8 1000 м
[Cb cap Ac As]
+19.9 +15.5 76 +22 +22 комфорт 1010.9 1003.7
00 21.07 СВ 4
{11}
10 км {ливн. осадки} 10/10 1000 м
[Cb cap]
+20.4 +14.7 70 +23 +23 комфорт 1010.9 1003.7
03 21.07 СВ 3 20 км {ливн. осадки} 8/6 1000 м
[Cb cap Ci sp]
+20.5 +14.9 70 +24 +24 комфорт 1011.3 1004.1 +19.6 3
06 21.07 СВ 3 20 км {ливн. осадки} 9/8 1000 м
[Cb cap Ac trans]
+22.3 +15.6 66 +26 +27 жарко 1012.2 1005.1
09 21.07 СВ 2 20 км 9/4 1000 м
[Cu med, cong Ac trans]
+25.7 +16.8 58 +29 +35 душно 1012.6 1005.5
12 21.07 ЮЗ 2 20 км 4/4 1000 м
[Cu med, cong]
+27.7 +19.2 60 +33 +41 очень
душно
1012.0 1005.0
15 21.07 ЮЗ 2 20 км 1/1 1000 м
[Cu med, cong]
+26.3 +19.6 67 +32 +34 очень
душно
1011.4 1004.4 +29.6
18 21.07 СВ 1 10 км 3/3 1000 м
[Sc]
+23.8 +18.2 71 +28 +28 душно 1011.9 1004.8
21 21.07 СВ 1 10 км 6/4 1000 м
[Sc Ci fib]
+23.0 +19.2 79 +29 +29 очень
душно
1012.1 1005.0
00 22.07 С 1 10 км 8/8 1000 м
[Sc Ci]
+22.7 +18.2 76 +28 +28 душно 1011.5 1004.4
03 22.07 СВ 2 20 км 6/4 1000 м
[Cu Sc Ac trans]
+21.3 +18.3 83 +26 +26 душно 1011.7 1004.5 +21.3
06 22.07 штиль 0 20 км 9/6 1000 м
[Cu Sc Ac trans Ci sp]
+26.1 +19.2 66 +31 +35 очень
душно
1011.9 1004.9
09 22.07 ЮЗ 2 20 км 8/6 1000 м
[Cu Sc Ac trans Ci sp]
+27.6 +20.4 65 +34 +40 очень
душно
1012.3 1005.3
12 22.07 ЮЗ 2 20 км 9/8 1000 м
[Cu Sc Ci sp]
+28.8 +20.5 61 +36 +38 очень
душно
1011.7 1004.7
15 22.07 З 1 20 км 10/8 1000 м
[Cu Sc Ci sp]
+26.0 +20.3 71 +32 +33 очень
душно
1011.8 1004.8 +29.5
18 22.07 З 1 4000 м слабый ливневой дождь 10/8 1000 м
[Cb cap Ac trans Ci sp]
+24.0 +20.6 81 +30 +30 очень
душно
1012.4 1005.4
21 22.07 СВ 1 10 км {ливн. осадки} 9/6 1000 м
[Cb cap Ci sp]
+23.5 +19.9 80 +29 +29 душно 1012.5 1005.5

 

Местоположение метеостанции Туапсе (Краснодарский край, Россия): широта 44.10 долгота 39.07 высота над уровнем моря 62 м.

В архиве по умолчанию представлена погода в Туапсе за последнюю неделю. Архивные данные за месяц целиком и за предыдущие месяцы, начиная с января 2011 года, Вы можете получить, выбрав интересующий диапазон дат из раскрывающегося списка и нажав кнопку "Ввод!".

Внимание! Время в таблицах - всемирное. Для получения местного времени необходимо прибавить поправку, которая в Туапсе равна 3 ч.

Смотрите также архив погоды в соседних городах и на ближайших метеорологических станциях:

Погода в Горном (Краснодарский край, Россия) (26 км)
Погода в Джубге (Краснодарский край, Россия) (38 км)
Погода в Горячем Ключе (Краснодарский край, Россия) (59 км)
Погода в Сочи (Краснодарский край, Россия) (81 км)
Погода в Гузерипле (Адыгея, Россия) (85 км)
Погода в Шунтуке (Адыгея, Россия) (93 км)
Погода в Геленджике (Краснодарский край, Россия) (95 км)
Погода в Кепше (Краснодарский край, Россия) (95 км)
Погода в Белореченске (Краснодарский край, Россия) (98 км)
Погода в Майкопе (Адыгея, Россия) (99 км)

Пояснения к столбцам:

Ветер - указаны скорость ветра в м/с - средняя за 10 мин, порывы в срок и между сроками (в фигурных скобках) и направление, откуда дует ветер: С - северный, СВ - северо-восточный, В - восточный, ЮВ - юго-восточный, Ю - южный, ЮЗ - юго-западный, З - западный, СЗ - северо-западный.
Видимость - горизонтальная дальность видимости в метрах или километрах. При видимости от 1 до 10 км при отсутствии осадков обычно наблюдается дымка, при ухудшении видимости до 1 км и менее - туман. В сухую погоду видимость может ухудшаться дымом, пылью или мглою.
Явления - указаны атмосферные явления, наблюдавшиеся в срок или в последний час перед сроком; фигурными скобками обозначены явления, наблюдавшиеся между сроками (за 1-3 часа до срока); квадратными скобками обозначены град или гололедные отложения с указанием их диаметра в мм.
Облачность - указаны через наклонную черту общая и нижняя облачность в баллах и высота нижней границы облаков в метрах; квадратными скобками обозначены формы облаков: Ci - перистые, Cs - перисто-слоистые, Cc - перисто-кучевые, Ac - высококучевые, As - высокослоистые, Sc - слоисто-кучевые, Ns - слоисто-дождевые, Cu - кучевые, Cb - кучево-дождевые. Подробнее классификацию облаков см. в Атласе облаков (PDF).
T - Температура воздуха - температура, измеренная на высоте 2 м над землей.
Td - Температура точки росы - температура, при понижении до которой содержащийся в воздухе водяной пар достигнет насыщения.
f - Относительная влажность воздуха - влажноcть воздуха, измеренная на высоте 2 м над землей.
Te - Эффективная температура - температура, которую ощущает одетый по сезону человек в тени. Характеристика душности погоды. При расчете учитывается влияние влажности воздуха и скорости ветра на теплоощущения человека.
Tes - Эффективная температура на солнце - температура, которую ощущает человек, с поправкой на солнечный нагрев. Характеристика знойности погоды. Зависит от высоты солнца над горизонтом, облачности и скорости ветра. Ночью, в пасмурную погоду, а также при ветре 12 м/с и более поправка равна нулю.
P - Атмосферное давление - приведенное к уровню моря атмосферное давление.
Po - Атмосферное давление - измеренное на уровне метеостанции атмосферное давление.
Tmin - Минимальная температура - минимум температуры воздуха на высоте 2 м над землей.
Tmax - Максимальная температура - максимум температуры воздуха на высоте 2 м над землей.
R - Количество осадков - Количество выпавших осадков за период времени, мм. При наведении курсора мыши на число - период времени, за который выпало указанное количество осадков.
R24 - Количество осадков - Количество выпавших осадков за 24 часа, мм.
S - Снежный покров - Высота снежного покрова, см. При наведении курсора мыши на число - состояние снежного покрова и степень покрытия местности в баллах.